Content
SEND FEEDBACK

Daily
Averages
Monthly
Summary
United States of America

PERU, VERMONT


Home > North America > United States > Vermont
Elevation: 1660 feet     Latitude: 43 14N     Longitude: 072 54W

WEATHER
 
SELECT A DAY
Number of Records: 464,437;   Date Range: 1/1/95 - 11/21/14
 
SHARE

PRINT THIS DATA

[ ← Previous Day ]
WEATHER ALMANAC - JULY 30, 2014
[ Next Day → ]
[ °C ]   °F
Weather ElementAverageHighLow
Temperature62.2 °F71.6 °F (12:35 pm)53.6 °F (1:35 am)
Dewpoint51.6 °F55.4 °F (11:35 am)46.4 °F (9:55 am)
Humidity71.2 %100 % (1:15 am)41 % (5:55 pm)
Barometer30.01 in30.04 in (4:55 am)29.97 in (7:35 pm)
Wind Speed5.2 mph11.5 mph (11:35 am)
Weather ElementAverage
Visibility10 mi
Wind DirectionSSE (146.9 °)

Weather ElementTotal
Precipitation---
Heating Degree Days2.4 (Base 65)
Growing Degree Days12.6 (Base 50)
Averaged from 68 records on July 30, 2014
WEATHER CONDITIONS BREAKOUT
WIND DIRECTION BREAKOUT
WEATHER BY HOUR - JULY 30, 2014
[ °C ]   °F
Local TimeTemperatureDewpointHumidityBarometerVisibilityWind DirectionWind SpeedGust SpeedPrecipitationEventsConditions
12:15 AM55.4 °F51.8 °F88 %29.97 in10.0 miSE (130°)10.4 mphPartly Cloudy
12:35 AM55.4 °F51.8 °F88 %29.97 in10.0 miSE (130°)11.5 mphClear
12:55 AM55.4 °F51.8 °F88 %29.98 in10.0 miSE (140°)9.2 mphClear
1:35 AM55.4 °F51.8 °F88 %29.98 in10.0 miSSE (160°)4.6 mphOvercast
1:55 AM55.4 °F51.8 °F88 %29.98 in10.0 miSSE (160°)5.8 mphOvercast
2:15 AM55.4 °F51.8 °F88 %29.98 in10.0 miSE (130°)10.4 mphOvercast
2:35 AM53.6 °F51.8 °F94 %29.99 in10.0 miSE (130°)9.2 mphOvercast
2:55 AM55.4 °F51.8 °F88 %29.99 in10.0 miSE (140°)8.1 mphOvercast
3:15 AM53.6 °F51.8 °F94 %29.98 in10.0 miSE (140°)5.8 mphOvercast
3:35 AM55.4 °F51.8 °F88 %29.98 in10.0 miSE (130°)8.1 mphOvercast
3:55 AM53.6 °F51.8 °F94 %29.98 in10.0 miESE (110°)5.8 mphOvercast
4:15 AM55.4 °F51.8 °F88 %29.99 in10.0 miSE (130°)5.8 mphOvercast
4:35 AM53.6 °F51.8 °F94 %29.99 in10.0 miENE (70°)4.6 mphOvercast
4:55 AM53.6 °F51.8 °F94 %30.00 in10.0 miESE (120°)4.6 mphOvercast
5:15 AM53.6 °F51.8 °F94 %30.00 in10.0 miSSE (160°)3.5 mphOvercast
5:35 AM53.6 °F51.8 °F94 %30.01 in10.0 miESE (120°)4.6 mphOvercast
5:55 AM53.6 °F51.8 °F94 %30.01 in10.0 miCalmOvercast
6:15 AM53.6 °F53.6 °F100 %30.01 in10.0 miSE (140°)3.5 mphOvercast
6:35 AM55.4 °F51.8 °F88 %30.01 in10.0 miSSE (150°)3.5 mphOvercast
6:55 AM55.4 °F51.8 °F88 %30.01 in10.0 miESE (120°)3.5 mphOvercast
7:15 AM55.4 °F51.8 °F88 %30.02 in10.0 miSSE (160°)5.8 mphOvercast
7:35 AM55.4 °F53.6 °F94 %30.03 in10.0 miCalmOvercast
8:15 AM57.2 °F53.6 °F88 %30.03 in10.0 miCalmOvercast
8:35 AM57.2 °F53.6 °F88 %30.04 in10.0 miCalmOvercast
8:55 AM59.0 °F53.6 °F82 %30.04 in10.0 miCalmOvercast
9:15 AM60.8 °F53.6 °F77 %30.04 in10.0 miCalmOvercast
9:35 AM60.8 °F53.6 °F77 %30.04 in10.0 miCalmOvercast
9:55 AM62.6 °F53.6 °F72 %30.04 in10.0 miCalmOvercast
10:15 AM62.6 °F55.4 °F77 %30.03 in10.0 miCalmOvercast
10:35 AM66.2 °F53.6 °F64 %30.03 in10.0 miCalmOvercast
10:55 AM66.2 °F51.8 °F60 %30.03 in10.0 miWNW (290°)3.5 mphMostly Cloudy
11:15 AM66.2 °F53.6 °F64 %30.03 in10.0 miCalmOvercast
11:35 AM66.2 °F53.6 °F64 %30.02 in10.0 miWSW (250°)6.9 mphOvercast
11:55 AM66.2 °F53.6 °F64 %30.02 in10.0 miSouth (180°)4.6 mphOvercast
12:15 PM66.2 °F53.6 °F64 %30.02 in10.0 miSouth (180°)4.6 mphOvercast
12:35 PM68.0 °F53.6 °F60 %30.01 in10.0 miSouth (170°)4.6 mphMostly Cloudy
12:55 PM69.8 °F53.6 °F56 %30.01 in10.0 miSouth (190°)6.9 mphMostly Cloudy
1:15 PM69.8 °F51.8 °F53 %30.01 in10.0 miNW (320°)3.5 mphOvercast
1:35 PM68.0 °F53.6 °F60 %30.00 in10.0 miNNW (330°)4.6 mphMostly Cloudy
1:55 PM69.8 °F50.0 °F49 %30.00 in10.0 miWNW (290°)3.5 mphOvercast
2:15 PM69.8 °F50.0 °F49 %29.99 in10.0 miWest (270°)3.5 mphMostly Cloudy
2:35 PM69.8 °F46.4 °F43 %29.99 in10.0 miSSW (200°)3.5 mphScattered Clouds
2:55 PM71.6 °F48.2 °F43 %29.99 in10.0 miSouth (180°)3.5 mphScattered Clouds
3:15 PM71.6 °F46.4 °F41 %29.98 in10.0 miSSW (210°)8.1 mphScattered Clouds
3:35 PM71.6 °F48.2 °F43 %29.98 in10.0 miWSW (240°)5.8 mphMostly Cloudy
3:55 PM71.6 °F48.2 °F43 %29.99 in10.0 miSSW (200°)6.9 mphScattered Clouds
4:15 PM71.6 °F48.2 °F43 %29.99 in10.0 miWSW (240°)6.9 mphScattered Clouds
4:35 PM71.6 °F46.4 °F41 %29.99 in10.0 miSW (230°)6.9 mphPartly Cloudy
4:55 PM71.6 °F48.2 °F43 %29.99 in10.0 miWSW (250°)4.6 mphClear
5:15 PM71.6 °F46.4 °F41 %29.99 in10.0 miSSW (210°)9.2 mphClear
5:35 PM71.6 °F46.4 °F41 %29.99 in10.0 miSSW (210°)6.9 mphClear
5:55 PM71.6 °F46.4 °F41 %29.99 in10.0 miSSW (200°)8.1 mphClear
6:15 PM71.6 °F48.2 °F43 %29.99 in10.0 miSSW (200°)4.6 mphClear
6:35 PM71.6 °F48.2 °F43 %30.00 in10.0 miSW (220°)5.8 mphClear
6:55 PM69.8 °F50.0 °F49 %30.00 in10.0 miSSW (210°)4.6 mphClear
7:15 PM69.8 °F51.8 °F53 %30.00 in10.0 miSSW (200°)3.5 mphClear
7:35 PM66.2 °F55.4 °F68 %30.01 in10.0 miSSE (150°)3.5 mphClear
7:55 PM66.2 °F53.6 °F64 %30.01 in10.0 miESE (120°)4.6 mphClear
8:15 PM64.4 °F53.6 °F68 %30.01 in10.0 miESE (120°)5.8 mphClear
8:35 PM62.6 °F53.6 °F72 %30.01 in10.0 miSE (140°)8.1 mphClear
8:55 PM60.8 °F53.6 °F77 %30.02 in10.0 miSE (130°)9.2 mphClear
9:15 PM60.8 °F53.6 °F77 %30.02 in10.0 miSE (130°)11.5 mphClear
9:35 PM60.8 °F53.6 °F77 %30.03 in10.0 miSSE (150°)5.8 mphClear
9:55 PM59.0 °F53.6 °F82 %30.03 in10.0 miSE (130°)8.1 mphClear
10:35 PM57.2 °F51.8 °F82 %30.03 in10.0 miSE (140°)9.2 mphClear
11:15 PM57.2 °F51.8 °F82 %30.03 in10.0 miSSE (150°)8.1 mphClear
11:35 PM57.2 °F51.8 °F82 %30.03 in10.0 miSE (140°)11.5 mphClear
11:55 PM55.4 °F51.8 °F88 %30.03 in10.0 miSSE (150°)5.8 mphClear
Hourly data recorded from KRUT, located miles away from Peru, Vermont







STORIES FROM OUR PARTNERS